Wetterdaten: Samstag, 26.09.2015
Datum Zeit Temp. A. Feuchte A. Luftdruck Regen Wind Richtung Richtung Sonnenschein ET UV Solar Taupunkt Windchill Windben Empfang
26.09.2015 00:04 13,7 C 76 % 1021,4 hPa 0,0 l/m 2,9 km/h (1 Bft) S 178 0 min 0,000 mm 0,0 UV-I 0 W/m 9,5 C 13,7 C 4,0 km/h (1 Bft) 0,00 %
26.09.2015 00:09 13,7 C 76 % 1021,4 hPa 0,0 l/m 4,3 km/h (1 Bft) S 179 0 min 0,000 mm 0,0 UV-I 0 W/m 9,5 C 13,7 C 7,9 km/h (2 Bft) 0,00 %
26.09.2015 00:14 13,6 C 76 % 1021,4 hPa 0,0 l/m 0,7 km/h (0 Bft) N-NW 339 0 min 0,000 mm 0,0 UV-I 0 W/m 9,4 C 13,6 C 4,0 km/h (1 Bft) 0,00 %
26.09.2015 00:19 13,6 C 75 % 1021,4 hPa 0,0 l/m 1,8 km/h (1 Bft) S-SO 153 0 min 0,000 mm 0,0 UV-I 0 W/m 9,3 C 13,6 C 4,0 km/h (1 Bft) 0,00 %
26.09.2015 00:24 13,6 C 75 % 1021,5 hPa 0,0 l/m 4,3 km/h (1 Bft) S-SW 208 0 min 0,000 mm 0,0 UV-I 0 W/m 9,3 C 13,6 C 7,9 km/h (2 Bft) 0,00 %
26.09.2015 00:29 13,5 C 75 % 1021,4 hPa 0,0 l/m 0,0 km/h (0 Bft) SW 228 0 min 0,000 mm 0,0 UV-I 0 W/m 9,2 C 13,5 C 0,0 km/h (0 Bft) 0,00 %
26.09.2015 00:34 13,5 C 75 % 1021,3 hPa 0,0 l/m 4,7 km/h (1 Bft) S-SW 213 0 min 0,000 mm 0,0 UV-I 0 W/m 9,2 C 13,5 C 7,9 km/h (2 Bft) 0,00 %
26.09.2015 00:39 13,5 C 75 % 1021,4 hPa 0,0 l/m 3,2 km/h (1 Bft) S 171 0 min 0,000 mm 0,0 UV-I 0 W/m 9,2 C 13,5 C 7,9 km/h (2 Bft) 0,00 %
26.09.2015 00:44 13,5 C 75 % 1021,5 hPa 0,0 l/m 0,7 km/h (0 Bft) S 174 0 min 0,000 mm 0,0 UV-I 0 W/m 9,2 C 13,5 C 4,0 km/h (1 Bft) 0,00 %
26.09.2015 00:49 13,5 C 75 % 1021,4 hPa 0,0 l/m 1,4 km/h (1 Bft) O-SO 115 0 min 0,000 mm 0,0 UV-I 0 W/m 9,2 C 13,5 C 4,0 km/h (1 Bft) 0,00 %
26.09.2015 00:54 13,5 C 75 % 1021,4 hPa 0,0 l/m 2,9 km/h (1 Bft) W-SW 256 0 min 0,000 mm 0,0 UV-I 0 W/m 9,2 C 13,5 C 7,9 km/h (2 Bft) 0,00 %
26.09.2015 00:59 13,5 C 75 % 1021,4 hPa 0,0 l/m 0,0 km/h (0 Bft) O-NO 69 0 min 0,000 mm 0,0 UV-I 0 W/m 9,2 C 13,5 C 0,0 km/h (0 Bft) 0,00 %
26.09.2015 01:04 13,4 C 76 % 1021,5 hPa 0,0 l/m 0,0 km/h (0 Bft) S 176 0 min 0,000 mm 0,0 UV-I 0 W/m 9,3 C 13,4 C 0,0 km/h (0 Bft) 0,00 %
26.09.2015 01:09 13,4 C 75 % 1021,5 hPa 0,0 l/m 2,2 km/h (1 Bft) S 189 0 min 0,000 mm 0,0 UV-I 0 W/m 9,1 C 13,4 C 4,0 km/h (1 Bft) 0,00 %
26.09.2015 01:14 13,3 C 76 % 1021,4 hPa 0,0 l/m 1,8 km/h (1 Bft) S 189 0 min 0,000 mm 0,0 UV-I 0 W/m 9,2 C 13,3 C 4,0 km/h (1 Bft) 0,00 %
26.09.2015 01:19 13,3 C 75 % 1021,6 hPa 0,0 l/m 2,9 km/h (1 Bft) SW 223 0 min 0,000 mm 0,0 UV-I 0 W/m 9,0 C 13,3 C 7,9 km/h (2 Bft) 0,00 %
26.09.2015 01:24 13,3 C 75 % 1021,4 hPa 0,0 l/m 1,4 km/h (1 Bft) W-NW 284 0 min 0,000 mm 0,0 UV-I 0 W/m 9,0 C 13,3 C 4,0 km/h (1 Bft) 0,00 %
26.09.2015 01:29 13,3 C 76 % 1021,5 hPa 0,0 l/m 2,9 km/h (1 Bft) W-SW 252 0 min 0,000 mm 0,0 UV-I 0 W/m 9,2 C 13,3 C 4,0 km/h (1 Bft) 0,00 %
26.09.2015 01:34 13,3 C 76 % 1021,5 hPa 0,0 l/m 0,7 km/h (0 Bft) SW 225 0 min 0,000 mm 0,0 UV-I 0 W/m 9,2 C 13,3 C 4,0 km/h (1 Bft) 0,00 %
26.09.2015 01:39 13,2 C 76 % 1021,6 hPa 0,0 l/m 0,4 km/h (0 Bft) O 96 0 min 0,000 mm 0,0 UV-I 0 W/m 9,1 C 13,2 C 4,0 km/h (1 Bft) 0,00 %
26.09.2015 01:44 13,2 C 76 % 1021,7 hPa 0,0 l/m 1,8 km/h (1 Bft) O-SO 108 0 min 0,000 mm 0,0 UV-I 0 W/m 9,1 C 13,2 C 4,0 km/h (1 Bft) 0,00 %
26.09.2015 01:49 13,1 C 76 % 1021,7 hPa 0,0 l/m 0,4 km/h (0 Bft) S 187 0 min 0,000 mm 0,0 UV-I 0 W/m 9,0 C 13,1 C 4,0 km/h (1 Bft) 0,00 %
26.09.2015 01:54 13,1 C 76 % 1021,7 hPa 0,0 l/m 0,0 km/h (0 Bft) S 173 0 min 0,000 mm 0,0 UV-I 0 W/m 9,0 C 13,1 C 0,0 km/h (0 Bft) 0,00 %
26.09.2015 01:59 13,1 C 77 % 1021,6 hPa 0,0 l/m 0,0 km/h (0 Bft) W 268 0 min 0,000 mm 0,0 UV-I 0 W/m 9,2 C 13,1 C 0,0 km/h (0 Bft) 0,00 %
26.09.2015 02:04 13,0 C 77 % 1021,6 hPa 0,0 l/m 0,0 km/h (0 Bft) W-NW 298 0 min 0,000 mm 0,0 UV-I 0 W/m 9,1 C 13,0 C 0,0 km/h (0 Bft) 0,00 %
26.09.2015 02:09 13,0 C 77 % 1021,4 hPa 0,0 l/m 0,0 km/h (0 Bft) N 351 0 min 0,000 mm 0,0 UV-I 0 W/m 9,1 C 13,0 C 0,0 km/h (0 Bft) 0,00 %
26.09.2015 02:14 12,9 C 79 % 1021,6 hPa 0,0 l/m 0,0 km/h (0 Bft) SO 125 0 min 0,000 mm 0,0 UV-I 0 W/m 9,3 C 12,9 C 0,0 km/h (0 Bft) 0,00 %
26.09.2015 02:19 12,9 C 79 % 1021,6 hPa 0,0 l/m 0,0 km/h (0 Bft) O-SO 116 0 min 0,000 mm 0,0 UV-I 0 W/m 9,3 C 12,9 C 0,0 km/h (0 Bft) 0,00 %
26.09.2015 02:24 12,8 C 79 % 1021,6 hPa 0,0 l/m 0,0 km/h (0 Bft) O 101 0 min 0,000 mm 0,0 UV-I 0 W/m 9,2 C 12,8 C 0,0 km/h (0 Bft) 0,00 %
26.09.2015 02:29 12,8 C 80 % 1021,6 hPa 0,0 l/m 0,0 km/h (0 Bft) S-SW 212 0 min 0,000 mm 0,0 UV-I 0 W/m 9,4 C 12,8 C 0,0 km/h (0 Bft) 0,00 %
26.09.2015 02:34 12,8 C 80 % 1021,5 hPa 0,0 l/m 0,0 km/h (0 Bft) S 181 0 min 0,000 mm 0,0 UV-I 0 W/m 9,4 C 12,8 C 0,0 km/h (0 Bft) 0,00 %
26.09.2015 02:39 12,7 C 81 % 1021,5 hPa 0,0 l/m 0,0 km/h (0 Bft) O 80 0 min 0,000 mm 0,0 UV-I 0 W/m 9,5 C 12,7 C 0,0 km/h (0 Bft) 0,00 %
26.09.2015 02:44 12,6 C 81 % 1021,7 hPa 0,0 l/m 0,0 km/h (0 Bft) O-SO 112 0 min 0,000 mm 0,0 UV-I 0 W/m 9,4 C 12,6 C 0,0 km/h (0 Bft) 0,00 %
26.09.2015 02:49 12,6 C 81 % 1021,6 hPa 0,0 l/m 0,0 km/h (0 Bft) O-SO 121 0 min 0,000 mm 0,0 UV-I 0 W/m 9,4 C 12,6 C 0,0 km/h (0 Bft) 0,00 %
26.09.2015 02:54 12,6 C 81 % 1021,5 hPa 0,0 l/m 0,0 km/h (0 Bft) S-SW 201 0 min 0,000 mm 0,0 UV-I 0 W/m 9,4 C 12,6 C 0,0 km/h (0 Bft) 0,00 %
26.09.2015 02:59 12,6 C 81 % 1021,7 hPa 0,0 l/m 0,0 km/h (0 Bft) S 182 0 min 0,000 mm 0,0 UV-I 0 W/m 9,4 C 12,6 C 0,0 km/h (0 Bft) 0,00 %
26.09.2015 03:04 12,6 C 81 % 1021,7 hPa 0,0 l/m 0,0 km/h (0 Bft) S-SW 201 0 min 0,000 mm 0,0 UV-I 0 W/m 9,4 C 12,6 C 0,0 km/h (0 Bft) 0,00 %
26.09.2015 03:09 12,6 C 81 % 1021,6 hPa 0,0 l/m 0,0 km/h (0 Bft) O-SO 113 0 min 0,000 mm 0,0 UV-I 0 W/m 9,4 C 12,6 C 0,0 km/h (0 Bft) 0,00 %
26.09.2015 03:14 12,6 C 81 % 1021,7 hPa 0,0 l/m 0,0 km/h (0 Bft) O-SO 113 0 min 0,000 mm 0,0 UV-I 0 W/m 9,4 C 12,6 C 0,0 km/h (0 Bft) 0,00 %
26.09.2015 03:19 12,5 C 81 % 1021,6 hPa 0,0 l/m 0,0 km/h (0 Bft) O-NO 64 0 min 0,000 mm 0,0 UV-I 0 W/m 9,3 C 12,5 C 0,0 km/h (0 Bft) 0,00 %
26.09.2015 03:24 12,5 C 81 % 1021,7 hPa 0,0 l/m 0,0 km/h (0 Bft) O 85 0 min 0,000 mm 0,0 UV-I 0 W/m 9,3 C 12,5 C 0,0 km/h (0 Bft) 0,00 %
26.09.2015 03:29 12,5 C 82 % 1021,8 hPa 0,0 l/m 0,0 km/h (0 Bft) O 96 0 min 0,000 mm 0,0 UV-I 0 W/m 9,5 C 12,5 C 0,0 km/h (0 Bft) 0,00 %
26.09.2015 03:35 12,5 C 82 % 1021,7 hPa 0,0 l/m 1,4 km/h (1 Bft) S 185 0 min 0,000 mm 0,0 UV-I 0 W/m 9,5 C 12,5 C 4,0 km/h (1 Bft) 0,00 %
26.09.2015 03:40 12,5 C 82 % 1021,5 hPa 0,0 l/m 0,0 km/h (0 Bft) O-NO 62 0 min 0,000 mm 0,0 UV-I 0 W/m 9,5 C 12,5 C 0,0 km/h (0 Bft) 0,00 %
26.09.2015 03:45 12,4 C 82 % 1021,7 hPa 0,0 l/m 3,2 km/h (1 Bft) S-SW 201 0 min 0,000 mm 0,0 UV-I 0 W/m 9,4 C 12,4 C 4,0 km/h (1 Bft) 0,00 %
26.09.2015 03:50 12,4 C 82 % 1021,4 hPa 0,0 l/m 0,4 km/h (0 Bft) S-SW 202 0 min 0,000 mm 0,0 UV-I 0 W/m 9,4 C 12,4 C 4,0 km/h (1 Bft) 0,00 %
26.09.2015 03:55 12,4 C 82 % 1021,5 hPa 0,0 l/m 0,0 km/h (0 Bft) S 187 0 min 0,000 mm 0,0 UV-I 0 W/m 9,4 C 12,4 C 0,0 km/h (0 Bft) 0,00 %
26.09.2015 04:00 12,4 C 82 % 1021,6 hPa 0,0 l/m 0,0 km/h (0 Bft) S-SW 195 0 min 0,000 mm 0,0 UV-I 0 W/m 9,4 C 12,4 C 0,0 km/h (0 Bft) 0,00 %
26.09.2015 04:05 12,4 C 82 % 1021,5 hPa 0,0 l/m 0,0 km/h (0 Bft) S-SO 149 0 min 0,000 mm 0,0 UV-I 0 W/m 9,4 C 12,4 C 0,0 km/h (0 Bft) 0,00 %
26.09.2015 04:10 12,5 C 82 % 1021,5 hPa 0,0 l/m 0,0 km/h (0 Bft) S 190 0 min 0,000 mm 0,0 UV-I 0 W/m 9,5 C 12,5 C 0,0 km/h (0 Bft) 0,00 %
26.09.2015 04:15 12,5 C 82 % 1021,5 hPa 0,0 l/m 0,0 km/h (0 Bft) SO 137 0 min 0,000 mm 0,0 UV-I 0 W/m 9,5 C 12,5 C 0,0 km/h (0 Bft) 0,00 %
26.09.2015 04:20 12,5 C 82 % 1021,5 hPa 0,0 l/m 0,4 km/h (0 Bft) N-NO 29 0 min 0,000 mm 0,0 UV-I 0 W/m 9,5 C 12,5 C 4,0 km/h (1 Bft) 0,00 %
26.09.2015 04:25 12,5 C 82 % 1021,7 hPa 0,0 l/m 0,0 km/h (0 Bft) O-SO 120 0 min 0,000 mm 0,0 UV-I 0 W/m 9,5 C 12,5 C 0,0 km/h (0 Bft) 0,00 %
26.09.2015 04:30 12,5 C 82 % 1021,6 hPa 0,0 l/m 0,0 km/h (0 Bft) S 183 0 min 0,000 mm 0,0 UV-I 0 W/m 9,5 C 12,5 C 0,0 km/h (0 Bft) 0,00 %
26.09.2015 04:35 12,5 C 82 % 1021,6 hPa 0,0 l/m 0,0 km/h (0 Bft) S 185 0 min 0,000 mm 0,0 UV-I 0 W/m 9,5 C 12,5 C 0,0 km/h (0 Bft) 0,00 %
26.09.2015 04:40 12,5 C 82 % 1021,5 hPa 0,0 l/m 0,0 km/h (0 Bft) S-SW 193 0 min 0,000 mm 0,0 UV-I 0 W/m 9,5 C 12,5 C 0,0 km/h (0 Bft) 0,00 %
26.09.2015 04:45 12,4 C 82 % 1021,6 hPa 0,0 l/m 0,0 km/h (0 Bft) S 174 0 min 0,000 mm 0,0 UV-I 0 W/m 9,4 C 12,4 C 0,0 km/h (0 Bft) 0,00 %
26.09.2015 04:50 12,4 C 82 % 1021,5 hPa 0,0 l/m 0,4 km/h (0 Bft) S 187 0 min 0,000 mm 0,0 UV-I 0 W/m 9,4 C 12,4 C 4,0 km/h (1 Bft) 0,00 %
26.09.2015 04:55 12,3 C 83 % 1021,3 hPa 0,0 l/m 1,4 km/h (1 Bft) S 176 0 min 0,000 mm 0,0 UV-I 0 W/m 9,5 C 12,3 C 4,0 km/h (1 Bft) 0,00 %
26.09.2015 05:00 12,3 C 83 % 1021,7 hPa 0,0 l/m 0,0 km/h (0 Bft) O-NO 78 0 min 0,000 mm 0,0 UV-I 0 W/m 9,5 C 12,3 C 0,0 km/h (0 Bft) 0,00 %
26.09.2015 05:05 12,3 C 83 % 1021,6 hPa 0,0 l/m 0,0 km/h (0 Bft) S 191 0 min 0,000 mm 0,0 UV-I 0 W/m 9,5 C 12,3 C 0,0 km/h (0 Bft) 0,00 %
26.09.2015 05:10 12,3 C 83 % 1021,5 hPa 0,0 l/m 0,0 km/h (0 Bft) S 183 0 min 0,000 mm 0,0 UV-I 0 W/m 9,5 C 12,3 C 0,0 km/h (0 Bft) 0,00 %
26.09.2015 05:15 12,3 C 83 % 1021,4 hPa 0,0 l/m 0,7 km/h (0 Bft) S 191 0 min 0,000 mm 0,0 UV-I 0 W/m 9,5 C 12,3 C 4,0 km/h (1 Bft) 0,00 %
26.09.2015 05:20 12,3 C 84 % 1021,6 hPa 0,0 l/m 1,8 km/h (1 Bft) S-SW 198 0 min 0,000 mm 0,0 UV-I 0 W/m 9,7 C 12,3 C 4,0 km/h (1 Bft) 0,00 %
26.09.2015 05:25 12,3 C 84 % 1021,6 hPa 0,0 l/m 0,4 km/h (0 Bft) W-SW 256 0 min 0,000 mm 0,0 UV-I 0 W/m 9,7 C 12,3 C 4,0 km/h (1 Bft) 0,00 %
26.09.2015 05:30 12,2 C 84 % 1021,6 hPa 0,0 l/m 0,4 km/h (0 Bft) S 183 0 min 0,000 mm 0,0 UV-I 0 W/m 9,6 C 12,2 C 4,0 km/h (1 Bft) 0,00 %
26.09.2015 05:35 12,2 C 84 % 1021,5 hPa 0,0 l/m 0,0 km/h (0 Bft) S 180 0 min 0,000 mm 0,0 UV-I 0 W/m 9,6 C 12,2 C 0,0 km/h (0 Bft) 0,00 %
26.09.2015 05:40 12,2 C 85 % 1021,3 hPa 0,0 l/m 0,0 km/h (0 Bft) NO 35 0 min 0,000 mm 0,0 UV-I 0 W/m 9,8 C 12,2 C 0,0 km/h (0 Bft) 0,00 %
26.09.2015 05:45 12,1 C 85 % 1021,4 hPa 0,0 l/m 0,0 km/h (0 Bft) SO 131 0 min 0,000 mm 0,0 UV-I 0 W/m 9,7 C 12,1 C 0,0 km/h (0 Bft) 0,00 %
26.09.2015 05:50 12,1 C 85 % 1021,6 hPa 0,0 l/m 0,0 km/h (0 Bft) S 180 0 min 0,000 mm 0,0 UV-I 0 W/m 9,7 C 12,1 C 0,0 km/h (0 Bft) 0,00 %
26.09.2015 05:55 12,0 C 85 % 1021,5 hPa 0,0 l/m 0,0 km/h (0 Bft) O-NO 68 0 min 0,000 mm 0,0 UV-I 0 W/m 9,6 C 12,0 C 0,0 km/h (0 Bft) 0,00 %
26.09.2015 06:00 12,0 C 86 % 1021,6 hPa 0,0 l/m 0,0 km/h (0 Bft) S-SW 204 0 min 0,000 mm 0,0 UV-I 0 W/m 9,7 C 12,0 C 0,0 km/h (0 Bft) 0,00 %
26.09.2015 06:05 11,9 C 88 % 1021,4 hPa 0,0 l/m 3,2 km/h (1 Bft) S-SW 206 0 min 0,000 mm 0,0 UV-I 0 W/m 10,0 C 11,9 C 4,0 km/h (1 Bft) 0,00 %
26.09.2015 06:10 11,9 C 88 % 1021,5 hPa 0,0 l/m 0,0 km/h (0 Bft) O-SO 102 0 min 0,000 mm 0,0 UV-I 0 W/m 10,0 C 11,9 C 0,0 km/h (0 Bft) 0,00 %
26.09.2015 06:15 11,8 C 88 % 1021,6 hPa 0,0 l/m 0,0 km/h (0 Bft) S 186 0 min 0,000 mm 0,0 UV-I 0 W/m 9,9 C 11,8 C 0,0 km/h (0 Bft) 0,00 %
26.09.2015 06:20 11,7 C 89 % 1021,5 hPa 0,0 l/m 0,0 km/h (0 Bft) S 181 0 min 0,000 mm 0,0 UV-I 0 W/m 9,9 C 11,7 C 0,0 km/h (0 Bft) 0,00 %
26.09.2015 06:25 11,6 C 89 % 1021,6 hPa 0,0 l/m 0,0 km/h (0 Bft) S-SW 199 0 min 0,000 mm 0,0 UV-I 0 W/m 9,8 C 11,6 C 0,0 km/h (0 Bft) 0,00 %
26.09.2015 06:30 11,6 C 89 % 1021,7 hPa 0,0 l/m 1,8 km/h (1 Bft) S-SW 207 0 min 0,000 mm 0,0 UV-I 0 W/m 9,8 C 11,6 C 4,0 km/h (1 Bft) 0,00 %
26.09.2015 06:35 11,6 C 90 % 1021,8 hPa 0,0 l/m 0,0 km/h (0 Bft) O-SO 116 0 min 0,000 mm 0,0 UV-I 0 W/m 10,0 C 11,6 C 0,0 km/h (0 Bft) 0,00 %
26.09.2015 06:40 11,5 C 90 % 1021,7 hPa 0,0 l/m 0,0 km/h (0 Bft) SO 124 0 min 0,000 mm 0,0 UV-I 0 W/m 9,9 C 11,5 C 0,0 km/h (0 Bft) 0,00 %
26.09.2015 06:45 11,5 C 90 % 1021,7 hPa 0,0 l/m 0,0 km/h (0 Bft) O 88 0 min 0,000 mm 0,0 UV-I 0 W/m 9,9 C 11,5 C 0,0 km/h (0 Bft) 0,00 %
26.09.2015 06:50 11,5 C 90 % 1021,7 hPa 0,0 l/m 0,0 km/h (0 Bft) O 84 0 min 0,000 mm 0,0 UV-I 0 W/m 9,9 C 11,5 C 0,0 km/h (0 Bft) 0,00 %
26.09.2015 06:55 11,5 C 90 % 1021,6 hPa 0,0 l/m 0,0 km/h (0 Bft) O 83 0 min 0,000 mm 0,0 UV-I 0 W/m 9,9 C 11,5 C 0,0 km/h (0 Bft) 0,00 %
26.09.2015 07:00 11,4 C 90 % 1021,7 hPa 0,0 l/m 0,0 km/h (0 Bft) S 183 0 min 0,000 mm 0,0 UV-I 0 W/m 9,8 C 11,4 C 0,0 km/h (0 Bft) 0,00 %
26.09.2015 07:05 11,4 C 90 % 1021,7 hPa 0,0 l/m 0,0 km/h (0 Bft) O 87 0 min 0,000 mm 0,0 UV-I 0 W/m 9,8 C 11,4 C 0,0 km/h (0 Bft) 0,00 %
26.09.2015 07:10 11,4 C 91 % 1022,0 hPa 0,0 l/m 0,0 km/h (0 Bft) NO 50 0 min 0,000 mm 0,0 UV-I 0 W/m 10,0 C 11,4 C 0,0 km/h (0 Bft) 0,00 %
26.09.2015 07:15 11,4 C 91 % 1022,0 hPa 0,0 l/m 0,0 km/h (0 Bft) O-NO 59 0 min 0,000 mm 0,0 UV-I 0 W/m 10,0 C 11,4 C 0,0 km/h (0 Bft) 0,00 %
26.09.2015 07:20 11,3 C 91 % 1021,9 hPa 0,0 l/m 0,0 km/h (0 Bft) O 84 0 min 0,000 mm 0,0 UV-I 0 W/m 9,9 C 11,3 C 0,0 km/h (0 Bft) 0,00 %
26.09.2015 07:25 11,3 C 91 % 1022,0 hPa 0,0 l/m 0,0 km/h (0 Bft) O-NO 67 0 min 0,000 mm 0,0 UV-I 3 W/m 9,9 C 11,3 C 0,0 km/h (0 Bft) 0,00 %
26.09.2015 07:30 11,3 C 91 % 1021,9 hPa 0,0 l/m 0,0 km/h (0 Bft) O-SO 113 0 min 0,000 mm 0,0 UV-I 6 W/m 9,9 C 11,3 C 0,0 km/h (0 Bft) 0,00 %
26.09.2015 07:35 11,3 C 91 % 1022,2 hPa 0,0 l/m 0,0 km/h (0 Bft) O-SO 121 0 min 0,000 mm 0,0 UV-I 11 W/m 9,9 C 11,3 C 0,0 km/h (0 Bft) 0,00 %
26.09.2015 07:40 11,3 C 91 % 1022,0 hPa 0,0 l/m 0,0 km/h (0 Bft) O 95 0 min 0,000 mm 0,0 UV-I 18 W/m 9,9 C 11,3 C 0,0 km/h (0 Bft) 0,00 %
26.09.2015 07:45 11,3 C 91 % 1022,1 hPa 0,0 l/m 0,0 km/h (0 Bft) O-SO 116 0 min 0,000 mm 0,0 UV-I 18 W/m 9,9 C 11,3 C 0,0 km/h (0 Bft) 0,00 %
26.09.2015 07:50 11,4 C 91 % 1022,2 hPa 0,0 l/m 0,0 km/h (0 Bft) O 100 0 min 0,000 mm 0,0 UV-I 20 W/m 10,0 C 11,4 C 0,0 km/h (0 Bft) 0,00 %
26.09.2015 07:55 11,4 C 91 % 1022,0 hPa 0,0 l/m 0,0 km/h (0 Bft) SO 125 0 min 0,000 mm 0,0 UV-I 22 W/m 10,0 C 11,4 C 0,0 km/h (0 Bft) 0,00 %
26.09.2015 08:00 11,4 C 91 % 1022,2 hPa 0,0 l/m 0,0 km/h (0 Bft) O 96 0 min 0,000 mm 0,0 UV-I 21 W/m 10,0 C 11,4 C 0,0 km/h (0 Bft) 0,00 %
26.09.2015 08:05 11,4 C 91 % 1022,3 hPa 0,0 l/m 0,0 km/h (0 Bft) NO 55 0 min 0,000 mm 0,0 UV-I 23 W/m 10,0 C 11,4 C 0,0 km/h (0 Bft) 0,00 %
26.09.2015 08:10 11,5 C 91 % 1022,4 hPa 0,0 l/m 0,0 km/h (0 Bft) O 80 0 min 0,000 mm 0,0 UV-I 22 W/m 10,1 C 11,5 C 0,0 km/h (0 Bft) 0,00 %
26.09.2015 08:15 11,5 C 91 % 1022,3 hPa 0,0 l/m 0,0 km/h (0 Bft) O-SO 107 0 min 0,000 mm 0,0 UV-I 22 W/m 10,1 C 11,5 C 0,0 km/h (0 Bft) 0,00 %
26.09.2015 08:20 11,5 C 90 % 1022,3 hPa 0,0 l/m 0,0 km/h (0 Bft) O 99 0 min 0,000 mm 0,0 UV-I 27 W/m 9,9 C 11,5 C 0,0 km/h (0 Bft) 0,00 %
26.09.2015 08:25 11,6 C 90 % 1022,2 hPa 0,0 l/m 0,0 km/h (0 Bft) SO 141 0 min 0,000 mm 0,0 UV-I 35 W/m 10,0 C 11,6 C 0,0 km/h (0 Bft) 0,00 %
26.09.2015 08:30 11,6 C 90 % 1022,2 hPa 0,0 l/m 0,0 km/h (0 Bft) S 175 0 min 0,000 mm 0,0 UV-I 35 W/m 10,0 C 11,6 C 0,0 km/h (0 Bft) 0,00 %
26.09.2015 08:35 11,6 C 90 % 1022,0 hPa 0,0 l/m 0,0 km/h (0 Bft) O 94 0 min 0,000 mm 0,0 UV-I 35 W/m 10,0 C 11,6 C 0,0 km/h (0 Bft) 0,00 %
26.09.2015 08:40 11,7 C 90 % 1022,2 hPa 0,0 l/m 0,0 km/h (0 Bft) S 181 0 min 0,000 mm 0,0 UV-I 30 W/m 10,1 C 11,7 C 0,0 km/h (0 Bft) 0,00 %
26.09.2015 08:45 11,7 C 90 % 1022,3 hPa 0,0 l/m 0,0 km/h (0 Bft) O-NO 72 0 min 0,000 mm 0,0 UV-I 27 W/m 10,1 C 11,7 C 0,0 km/h (0 Bft) 0,00 %
26.09.2015 08:50 11,7 C 90 % 1022,3 hPa 0,0 l/m 0,0 km/h (0 Bft) O-NO 75 0 min 0,000 mm 0,0 UV-I 28 W/m 10,1 C 11,7 C 0,0 km/h (0 Bft) 0,00 %
26.09.2015 08:55 11,7 C 90 % 1022,3 hPa 0,0 l/m 0,0 km/h (0 Bft) NO 47 0 min 0,000 mm 0,0 UV-I 30 W/m 10,1 C 11,7 C 0,0 km/h (0 Bft) 0,00 %
26.09.2015 09:00 11,7 C 90 % 1022,4 hPa 0,0 l/m 0,0 km/h (0 Bft) O-NO 66 0 min 0,000 mm 0,0 UV-I 32 W/m 10,1 C 11,7 C 0,0 km/h (0 Bft) 0,00 %
26.09.2015 09:05 11,7 C 90 % 1022,4 hPa 0,0 l/m 0,0 km/h (0 Bft) O-NO 65 0 min 0,000 mm 0,0 UV-I 36 W/m 10,1 C 11,7 C 0,0 km/h (0 Bft) 0,00 %
26.09.2015 09:10 11,7 C 90 % 1022,4 hPa 0,0 l/m 0,0 km/h (0 Bft) O-SO 118 0 min 0,000 mm 0,0 UV-I 43 W/m 10,1 C 11,7 C 0,0 km/h (0 Bft) 0,00 %
26.09.2015 09:15 11,7 C 90 % 1022,5 hPa 0,0 l/m 0,0 km/h (0 Bft) O-NO 69 0 min 0,000 mm 0,0 UV-I 53 W/m 10,1 C 11,7 C 0,0 km/h (0 Bft) 0,00 %
26.09.2015 09:20 11,7 C 90 % 1022,5 hPa 0,0 l/m 0,0 km/h (0 Bft) O-NO 65 0 min 0,000 mm 0,0 UV-I 68 W/m 10,1 C 11,7 C 0,0 km/h (0 Bft) 0,00 %
26.09.2015 09:25 11,8 C 90 % 1022,5 hPa 0,0 l/m 0,0 km/h (0 Bft) O 84 0 min 0,000 mm 0,0 UV-I 76 W/m 10,2 C 11,8 C 0,0 km/h (0 Bft) 0,00 %
26.09.2015 09:30 11,9 C 89 % 1022,4 hPa 0,0 l/m 0,0 km/h (0 Bft) O-NO 61 0 min 0,000 mm 0,0 UV-I 83 W/m 10,1 C 11,9 C 0,0 km/h (0 Bft) 0,00 %
26.09.2015 09:35 12,0 C 89 % 1022,6 hPa 0,0 l/m 0,0 km/h (0 Bft) O-NO 68 0 min 0,000 mm 0,0 UV-I 87 W/m 10,2 C 12,0 C 0,0 km/h (0 Bft) 0,00 %
26.09.2015 09:40 12,2 C 89 % 1022,5 hPa 0,0 l/m 0,0 km/h (0 Bft) O-NO 68 0 min 0,000 mm 1,0 UV-I 92 W/m 10,4 C 12,2 C 0,0 km/h (0 Bft) 0,00 %
26.09.2015 09:45 12,3 C 89 % 1022,7 hPa 0,0 l/m 0,0 km/h (0 Bft) S 181 0 min 0,000 mm 1,0 UV-I 92 W/m 10,5 C 12,3 C 0,0 km/h (0 Bft) 0,00 %
26.09.2015 09:50 12,4 C 88 % 1022,8 hPa 0,0 l/m 0,0 km/h (0 Bft) S 181 0 min 0,000 mm 0,0 UV-I 91 W/m 10,5 C 12,4 C 0,0 km/h (0 Bft) 0,00 %
26.09.2015 09:55 12,4 C 88 % 1022,8 hPa 0,0 l/m 0,0 km/h (0 Bft) O 95 0 min 0,000 mm 0,0 UV-I 92 W/m 10,5 C 12,4 C 0,0 km/h (0 Bft) 0,00 %
26.09.2015 10:00 12,5 C 87 % 1022,8 hPa 0,0 l/m 0,0 km/h (0 Bft) O-NO 64 0 min 0,000 mm 1,0 UV-I 96 W/m 10,4 C 12,5 C 0,0 km/h (0 Bft) 0,00 %
26.09.2015 10:05 12,6 C 87 % 1022,6 hPa 0,0 l/m 0,0 km/h (0 Bft) S-SO 160 0 min 0,000 mm 1,0 UV-I 103 W/m 10,5 C 12,6 C 0,0 km/h (0 Bft) 0,00 %
26.09.2015 10:10 12,7 C 87 % 1022,7 hPa 0,0 l/m 0,0 km/h (0 Bft) O-NO 77 0 min 0,000 mm 1,0 UV-I 108 W/m 10,6 C 12,7 C 0,0 km/h (0 Bft) 0,00 %
26.09.2015 10:15 12,8 C 86 % 1022,7 hPa 0,0 l/m 0,0 km/h (0 Bft) O-NO 78 0 min 0,000 mm 1,0 UV-I 117 W/m 10,5 C 12,8 C 0,0 km/h (0 Bft) 0,00 %
26.09.2015 10:20 13,0 C 85 % 1022,9 hPa 0,0 l/m 0,0 km/h (0 Bft) O-NO 74 0 min 0,000 mm 1,0 UV-I 126 W/m 10,5 C 13,0 C 0,0 km/h (0 Bft) 0,00 %
26.09.2015 10:25 13,1 C 85 % 1022,7 hPa 0,0 l/m 0,0 km/h (0 Bft) O-NO 70 0 min 0,000 mm 1,0 UV-I 130 W/m 10,6 C 13,1 C 0,0 km/h (0 Bft) 0,00 %
26.09.2015 10:30 13,2 C 85 % 1022,8 hPa 0,0 l/m 0,0 km/h (0 Bft) O-NO 64 0 min 0,000 mm 1,0 UV-I 128 W/m 10,7 C 13,2 C 0,0 km/h (0 Bft) 0,00 %
26.09.2015 10:35 13,3 C 85 % 1022,7 hPa 0,0 l/m 0,0 km/h (0 Bft) O-SO 104 0 min 0,000 mm 1,0 UV-I 133 W/m 10,8 C 13,3 C 0,0 km/h (0 Bft) 0,00 %
26.09.2015 10:40 13,4 C 83 % 1022,5 hPa 0,0 l/m 0,0 km/h (0 Bft) S 181 0 min 0,000 mm 1,0 UV-I 135 W/m 10,6 C 13,4 C 0,0 km/h (0 Bft) 0,00 %
26.09.2015 10:45 13,5 C 83 % 1022,5 hPa 0,0 l/m 0,0 km/h (0 Bft) O-NO 76 0 min 0,000 mm 1,0 UV-I 131 W/m 10,7 C 13,5 C 0,0 km/h (0 Bft) 0,00 %
26.09.2015 10:50 13,5 C 83 % 1022,7 hPa 0,0 l/m 0,0 km/h (0 Bft) O 91 0 min 0,000 mm 1,0 UV-I 128 W/m 10,7 C 13,5 C 0,0 km/h (0 Bft) 0,00 %
26.09.2015 10:55 13,6 C 83 % 1022,5 hPa 0,0 l/m 0,0 km/h (0 Bft) O 101 0 min 0,000 mm 1,0 UV-I 131 W/m 10,8 C 13,6 C 0,0 km/h (0 Bft) 0,00 %
26.09.2015 11:00 13,7 C 82 % 1022,7 hPa 0,0 l/m 0,0 km/h (0 Bft) O-NO 68 0 min 0,000 mm 1,0 UV-I 136 W/m 10,7 C 13,7 C 0,0 km/h (0 Bft) 0,00 %
26.09.2015 11:05 13,7 C 82 % 1022,6 hPa 0,0 l/m 0,0 km/h (0 Bft) S 182 0 min 0,000 mm 1,0 UV-I 136 W/m 10,7 C 13,7 C 0,0 km/h (0 Bft) 0,00 %
26.09.2015 11:10 13,7 C 82 % 1022,5 hPa 0,0 l/m 0,0 km/h (0 Bft) O-NO 73 0 min 0,000 mm 1,0 UV-I 133 W/m 10,7 C 13,7 C 0,0 km/h (0 Bft) 0,00 %
26.09.2015 11:15 13,8 C 82 % 1022,5 hPa 0,0 l/m 0,0 km/h (0 Bft) O 82 0 min 0,000 mm 1,0 UV-I 132 W/m 10,8 C 13,8 C 0,0 km/h (0 Bft) 0,00 %
26.09.2015 11:20 13,9 C 81 % 1022,3 hPa 0,0 l/m 0,0 km/h (0 Bft) O 89 0 min 0,000 mm 1,0 UV-I 132 W/m 10,7 C 13,9 C 0,0 km/h (0 Bft) 0,00 %
26.09.2015 11:25 13,9 C 81 % 1022,5 hPa 0,0 l/m 0,0 km/h (0 Bft) O 96 0 min 0,000 mm 1,0 UV-I 138 W/m 10,7 C 13,9 C 0,0 km/h (0 Bft) 0,00 %
26.09.2015 11:30 14,0 C 81 % 1022,5 hPa 0,0 l/m 0,0 km/h (0 Bft) W-SW 251 0 min 0,000 mm 1,0 UV-I 144 W/m 10,8 C 14,0 C 0,0 km/h (0 Bft) 0,00 %
26.09.2015 11:35 14,0 C 80 % 1022,4 hPa 0,0 l/m 0,0 km/h (0 Bft) S-SO 166 0 min 0,000 mm 1,0 UV-I 152 W/m 10,6 C 14,0 C 0,0 km/h (0 Bft) 0,00 %
26.09.2015 11:40 14,1 C 80 % 1022,2 hPa 0,0 l/m 0,0 km/h (0 Bft) S 180 0 min 0,000 mm 1,0 UV-I 166 W/m 10,7 C 14,1 C 0,0 km/h (0 Bft) 0,00 %
26.09.2015 11:45 14,1 C 80 % 1022,3 hPa 0,0 l/m 0,0 km/h (0 Bft) O-SO 110 0 min 0,000 mm 1,0 UV-I 186 W/m 10,7 C 14,1 C 0,0 km/h (0 Bft) 0,00 %
26.09.2015 11:50 14,3 C 80 % 1022,4 hPa 0,0 l/m 0,0 km/h (0 Bft) O-SO 114 0 min 0,000 mm 1,0 UV-I 200 W/m 10,9 C 14,3 C 0,0 km/h (0 Bft) 0,00 %
26.09.2015 11:55 14,5 C 79 % 1022,2 hPa 0,0 l/m 0,0 km/h (0 Bft) O-NO 57 0 min 0,000 mm 1,0 UV-I 208 W/m 10,9 C 14,5 C 0,0 km/h (0 Bft) 0,00 %
26.09.2015 12:00 14,7 C 76 % 1022,2 hPa 0,0 l/m 0,0 km/h (0 Bft) O-SO 113 0 min 0,000 mm 1,0 UV-I 212 W/m 10,5 C 14,7 C 0,0 km/h (0 Bft) 0,00 %
26.09.2015 12:05 14,9 C 73 % 1022,2 hPa 0,0 l/m 0,0 km/h (0 Bft) SO 140 0 min 0,000 mm 1,0 UV-I 207 W/m 10,1 C 14,9 C 0,0 km/h (0 Bft) 0,00 %
26.09.2015 12:10 15,1 C 74 % 1022,1 hPa 0,0 l/m 0,0 km/h (0 Bft) O-SO 113 0 min 0,000 mm 1,0 UV-I 212 W/m 10,5 C 15,1 C 0,0 km/h (0 Bft) 0,00 %
26.09.2015 12:15 15,1 C 73 % 1022,1 hPa 0,0 l/m 0,0 km/h (0 Bft) NO 51 0 min 0,000 mm 1,0 UV-I 223 W/m 10,3 C 15,1 C 0,0 km/h (0 Bft) 0,00 %
26.09.2015 12:20 15,2 C 73 % 1022,2 hPa 0,0 l/m 0,0 km/h (0 Bft) SO 135 0 min 0,000 mm 1,0 UV-I 228 W/m 10,4 C 15,2 C 0,0 km/h (0 Bft) 0,00 %
26.09.2015 12:25 15,3 C 74 % 1022,2 hPa 0,0 l/m 0,0 km/h (0 Bft) S-SW 200 0 min 0,000 mm 1,0 UV-I 231 W/m 10,7 C 15,3 C 0,0 km/h (0 Bft) 0,00 %
26.09.2015 12:30 15,5 C 72 % 1022,2 hPa 0,0 l/m 0,0 km/h (0 Bft) SO 133 0 min 0,000 mm 1,0 UV-I 238 W/m 10,5 C 15,5 C 0,0 km/h (0 Bft) 0,00 %
26.09.2015 12:35 15,6 C 70 % 1022,0 hPa 0,0 l/m 0,0 km/h (0 Bft) NO 47 0 min 0,000 mm 1,0 UV-I 252 W/m 10,1 C 15,6 C 0,0 km/h (0 Bft) 0,00 %
26.09.2015 12:40 15,6 C 70 % 1022,0 hPa 0,0 l/m 0,0 km/h (0 Bft) NO 36 0 min 0,000 mm 1,0 UV-I 265 W/m 10,1 C 15,6 C 0,0 km/h (0 Bft) 0,00 %
26.09.2015 12:45 15,3 C 72 % 1022,0 hPa 0,0 l/m 0,0 km/h (0 Bft) NO 44 0 min 0,000 mm 1,0 UV-I 281 W/m 10,3 C 15,3 C 0,0 km/h (0 Bft) 0,00 %
26.09.2015 12:50 15,1 C 70 % 1021,8 hPa 0,0 l/m 0,0 km/h (0 Bft) O-SO 116 0 min 0,000 mm 1,0 UV-I 312 W/m 9,7 C 15,1 C 0,0 km/h (0 Bft) 0,00 %
26.09.2015 12:55 15,3 C 69 % 1021,7 hPa 0,0 l/m 0,0 km/h (0 Bft) O 99 0 min 0,000 mm 2,0 UV-I 332 W/m 9,6 C 15,3 C 0,0 km/h (0 Bft) 0,00 %
26.09.2015 13:00 15,9 C 68 % 1021,8 hPa 0,0 l/m 0,4 km/h (0 Bft) O-SO 102 0 min 0,000 mm 2,0 UV-I 342 W/m 10,0 C 15,9 C 4,0 km/h (1 Bft) 0,00 %
26.09.2015 13:05 16,4 C 66 % 1021,7 hPa 0,0 l/m 1,4 km/h (1 Bft) SO 139 0 min 0,000 mm 1,0 UV-I 317 W/m 10,0 C 16,4 C 4,0 km/h (1 Bft) 0,00 %
26.09.2015 13:10 16,7 C 63 % 1021,9 hPa 0,0 l/m 0,4 km/h (0 Bft) SW 214 0 min 0,000 mm 1,0 UV-I 297 W/m 9,6 C 16,7 C 4,0 km/h (1 Bft) 0,00 %
26.09.2015 13:15 16,9 C 66 % 1022,0 hPa 0,0 l/m 0,0 km/h (0 Bft) O-NO 62 0 min 0,000 mm 1,0 UV-I 287 W/m 10,5 C 16,9 C 0,0 km/h (0 Bft) 0,00 %
26.09.2015 13:20 16,8 C 63 % 1021,8 hPa 0,0 l/m 0,0 km/h (0 Bft) O-NO 65 0 min 0,000 mm 1,0 UV-I 273 W/m 9,7 C 16,8 C 0,0 km/h (0 Bft) 0,00 %
26.09.2015 13:25 16,7 C 64 % 1021,7 hPa 0,0 l/m 0,0 km/h (0 Bft) O 81 0 min 0,000 mm 1,0 UV-I 257 W/m 9,9 C 16,7 C 0,0 km/h (0 Bft) 0,00 %
26.09.2015 13:30 16,7 C 64 % 1021,9 hPa 0,0 l/m 0,0 km/h (0 Bft) O-NO 60 0 min 0,000 mm 1,0 UV-I 255 W/m 9,9 C 16,7 C 0,0 km/h (0 Bft) 0,00 %
26.09.2015 13:35 16,3 C 65 % 1021,8 hPa 0,0 l/m 0,0 km/h (0 Bft) NO 39 0 min 0,000 mm 1,0 UV-I 251 W/m 9,7 C 16,3 C 0,0 km/h (0 Bft) 0,00 %
26.09.2015 13:40 15,6 C 69 % 1021,7 hPa 0,0 l/m 2,2 km/h (1 Bft) S 183 0 min 0,000 mm 1,0 UV-I 252 W/m 9,9 C 15,6 C 4,0 km/h (1 Bft) 0,00 %
26.09.2015 13:45 15,3 C 68 % 1021,8 hPa 0,0 l/m 0,0 km/h (0 Bft) S 187 0 min 0,000 mm 1,0 UV-I 265 W/m 9,4 C 15,3 C 0,0 km/h (0 Bft) 0,00 %
26.09.2015 13:50 15,7 C 66 % 1021,7 hPa 0,0 l/m 0,0 km/h (0 Bft) O 97 0 min 0,000 mm 1,0 UV-I 272 W/m 9,4 C 15,7 C 0,0 km/h (0 Bft) 0,00 %
26.09.2015 13:55 16,0 C 64 % 1021,6 hPa 0,0 l/m 0,0 km/h (0 Bft) O-NO 68 0 min 0,000 mm 1,0 UV-I 267 W/m 9,2 C 16,0 C 0,0 km/h (0 Bft) 0,00 %
26.09.2015 14:00 16,0 C 64 % 1021,6 hPa 0,0 l/m 0,0 km/h (0 Bft) N-NO 33 0 min 0,000 mm 1,0 UV-I 260 W/m 9,2 C 16,0 C 0,0 km/h (0 Bft) 0,00 %
26.09.2015 14:05 15,9 C 63 % 1021,6 hPa 0,0 l/m 0,0 km/h (0 Bft) O 81 0 min 0,000 mm 1,0 UV-I 262 W/m 8,9 C 15,9 C 0,0 km/h (0 Bft) 0,00 %
26.09.2015 14:10 16,1 C 63 % 1021,7 hPa 0,0 l/m 0,0 km/h (0 Bft) N 353 0 min 0,000 mm 1,0 UV-I 266 W/m 9,1 C 16,1 C 0,0 km/h (0 Bft) 0,00 %
26.09.2015 14:15 16,4 C 60 % 1021,7 hPa 0,0 l/m 0,0 km/h (0 Bft) N-NO 28 0 min 0,000 mm 1,0 UV-I 266 W/m 8,6 C 16,4 C 0,0 km/h (0 Bft) 0,00 %
26.09.2015 14:20 16,2 C 61 % 1021,6 hPa 0,0 l/m 0,0 km/h (0 Bft) O-NO 61 0 min 0,000 mm 1,0 UV-I 271 W/m 8,7 C 16,2 C 0,0 km/h (0 Bft) 0,00 %
26.09.2015 14:25 15,9 C 61 % 1021,7 hPa 0,0 l/m 0,0 km/h (0 Bft) O-NO 65 0 min 0,000 mm 1,0 UV-I 288 W/m 8,4 C 15,9 C 0,0 km/h (0 Bft) 0,00 %
26.09.2015 14:30 16,1 C 60 % 1021,8 hPa 0,0 l/m 0,0 km/h (0 Bft) O-NO 78 0 min 0,000 mm 1,0 UV-I 287 W/m 8,3 C 16,1 C 0,0 km/h (0 Bft) 0,00 %
26.09.2015 14:35 16,7 C 60 % 1021,5 hPa 0,0 l/m 0,0 km/h (0 Bft) SO 127 0 min 0,000 mm 1,0 UV-I 288 W/m 8,9 C 16,7 C 0,0 km/h (0 Bft) 0,00 %
26.09.2015 14:40 17,0 C 61 % 1021,6 hPa 0,0 l/m 0,0 km/h (0 Bft) O-SO 120 0 min 0,000 mm 1,0 UV-I 272 W/m 9,4 C 17,0 C 0,0 km/h (0 Bft) 0,00 %
26.09.2015 14:45 17,2 C 59 % 1021,7 hPa 0,0 l/m 0,0 km/h (0 Bft) O-NO 71 0 min 0,000 mm 1,0 UV-I 254 W/m 9,1 C 17,2 C 0,0 km/h (0 Bft) 0,00 %
26.09.2015 14:50 17,0 C 59 % 1021,1 hPa 0,0 l/m 0,4 km/h (0 Bft) N-NO 32 0 min 0,000 mm 1,0 UV-I 232 W/m 8,9 C 17,0 C 4,0 km/h (1 Bft) 0,00 %
26.09.2015 14:55 16,3 C 61 % 1021,8 hPa 0,0 l/m 0,0 km/h (0 Bft) O-NO 59 0 min 0,000 mm 1,0 UV-I 231 W/m 8,8 C 16,3 C 0,0 km/h (0 Bft) 0,00 %
26.09.2015 15:00 15,8 C 61 % 1021,4 hPa 0,0 l/m 0,0 km/h (0 Bft) O-NO 59 0 min 0,000 mm 1,0 UV-I 228 W/m 8,3 C 15,8 C 0,0 km/h (0 Bft) 0,00 %
26.09.2015 15:05 15,8 C 59 % 1021,7 hPa 0,0 l/m 0,0 km/h (0 Bft) N 356 0 min 0,000 mm 1,0 UV-I 229 W/m 7,8 C 15,8 C 0,0 km/h (0 Bft) 0,00 %
26.09.2015 15:10 15,9 C 60 % 1021,8 hPa 0,0 l/m 0,0 km/h (0 Bft) O-NO 75 0 min 0,000 mm 1,0 UV-I 232 W/m 8,1 C 15,9 C 0,0 km/h (0 Bft) 0,00 %
26.09.2015 15:15 16,0 C 59 % 1021,7 hPa 0,0 l/m 0,0 km/h (0 Bft) O-NO 65 0 min 0,000 mm 1,0 UV-I 229 W/m 8,0 C 16,0 C 0,0 km/h (0 Bft) 0,00 %
26.09.2015 15:20 16,3 C 59 % 1021,7 hPa 0,0 l/m 0,0 km/h (0 Bft) O-NO 59 0 min 0,000 mm 1,0 UV-I 218 W/m 8,3 C 16,3 C 0,0 km/h (0 Bft) 0,00 %
26.09.2015 15:25 16,5 C 59 % 1021,7 hPa 0,0 l/m 0,0 km/h (0 Bft) O-NO 59 0 min 0,000 mm 1,0 UV-I 204 W/m 8,5 C 16,5 C 0,0 km/h (0 Bft) 0,00 %
26.09.2015 15:30 16,3 C 59 % 1021,8 hPa 0,0 l/m 0,4 km/h (0 Bft) N-NO 25 0 min 0,000 mm 1,0 UV-I 195 W/m 8,3 C 16,3 C 4,0 km/h (1 Bft) 0,00 %
26.09.2015 15:35 16,0 C 63 % 1021,8 hPa 0,0 l/m 0,0 km/h (0 Bft) O-NO 59 0 min 0,000 mm 1,0 UV-I 184 W/m 9,0 C 16,0 C 0,0 km/h (0 Bft) 0,00 %
26.09.2015 15:40 15,8 C 62 % 1021,9 hPa 0,0 l/m 0,0 km/h (0 Bft) O-NO 69 0 min 0,000 mm 1,0 UV-I 186 W/m 8,5 C 15,8 C 0,0 km/h (0 Bft) 0,00 %
26.09.2015 15:45 15,5 C 62 % 1022,0 hPa 0,0 l/m 0,0 km/h (0 Bft) O-NO 69 0 min 0,000 mm 1,0 UV-I 182 W/m 8,3 C 15,5 C 0,0 km/h (0 Bft) 0,00 %
26.09.2015 15:50 15,6 C 61 % 1021,9 hPa 0,0 l/m 0,0 km/h (0 Bft) O-NO 60 0 min 0,000 mm 1,0 UV-I 183 W/m 8,1 C 15,6 C 0,0 km/h (0 Bft) 0,00 %
26.09.2015 15:55 15,7 C 60 % 1022,0 hPa 0,0 l/m 0,0 km/h (0 Bft) O-SO 121 0 min 0,000 mm 1,0 UV-I 175 W/m 8,0 C 15,7 C 0,0 km/h (0 Bft) 0,00 %
26.09.2015 16:00 15,9 C 60 % 1021,9 hPa 0,0 l/m 0,0 km/h (0 Bft) O-SO 106 0 min 0,000 mm 1,0 UV-I 184 W/m 8,1 C 15,9 C 0,0 km/h (0 Bft) 0,00 %
26.09.2015 16:05 16,2 C 60 % 1022,1 hPa 0,0 l/m 0,0 km/h (0 Bft) S 174 0 min 0,000 mm 1,0 UV-I 186 W/m 8,4 C 16,2 C 0,0 km/h (0 Bft) 0,00 %
26.09.2015 16:10 16,4 C 61 % 1022,0 hPa 0,0 l/m 0,0 km/h (0 Bft) O-SO 122 0 min 0,000 mm 1,0 UV-I 187 W/m 8,9 C 16,4 C 0,0 km/h (0 Bft) 0,00 %
26.09.2015 16:15 16,5 C 60 % 1021,9 hPa 0,0 l/m 0,0 km/h (0 Bft) O 89 0 min 0,000 mm 1,0 UV-I 180 W/m 8,7 C 16,5 C 0,0 km/h (0 Bft) 0,00 %
26.09.2015 16:20 16,5 C 61 % 1022,2 hPa 0,0 l/m 0,0 km/h (0 Bft) N-NO 30 0 min 0,000 mm 1,0 UV-I 178 W/m 9,0 C 16,5 C 0,0 km/h (0 Bft) 0,00 %
26.09.2015 16:25 16,6 C 61 % 1022,2 hPa 0,0 l/m 0,0 km/h (0 Bft) W-SW 249 0 min 0,000 mm 1,0 UV-I 179 W/m 9,0 C 16,6 C 0,0 km/h (0 Bft) 0,00 %
26.09.2015 16:30 16,5 C 59 % 1022,2 hPa 0,0 l/m 0,0 km/h (0 Bft) N-NO 33 0 min 0,000 mm 1,0 UV-I 181 W/m 8,5 C 16,5 C 0,0 km/h (0 Bft) 0,00 %
26.09.2015 16:35 16,2 C 62 % 1022,0 hPa 0,0 l/m 0,0 km/h (0 Bft) O-SO 120 0 min 0,000 mm 1,0 UV-I 172 W/m 8,9 C 16,2 C 0,0 km/h (0 Bft) 0,00 %
26.09.2015 16:40 15,8 C 62 % 1022,3 hPa 0,0 l/m 0,0 km/h (0 Bft) O-SO 108 0 min 0,000 mm 1,0 UV-I 149 W/m 8,5 C 15,8 C 0,0 km/h (0 Bft) 0,00 %
26.09.2015 16:45 15,9 C 62 % 1022,3 hPa 0,0 l/m 0,7 km/h (0 Bft) SO 134 0 min 0,000 mm 1,0 UV-I 131 W/m 8,6 C 15,9 C 4,0 km/h (1 Bft) 0,00 %
26.09.2015 16:50 16,0 C 63 % 1022,2 hPa 0,0 l/m 0,0 km/h (0 Bft) S-SO 147 0 min 0,000 mm 1,0 UV-I 113 W/m 9,0 C 16,0 C 0,0 km/h (0 Bft) 0,00 %
26.09.2015 16:55 15,9 C 64 % 1022,3 hPa 0,0 l/m 0,0 km/h (0 Bft) SO 134 0 min 0,000 mm 1,0 UV-I 102 W/m 9,1 C 15,9 C 0,0 km/h (0 Bft) 0,00 %
26.09.2015 17:00 15,8 C 65 % 1022,5 hPa 0,0 l/m 0,0 km/h (0 Bft) O 98 0 min 0,000 mm 0,0 UV-I 93 W/m 9,2 C 15,8 C 0,0 km/h (0 Bft) 0,00 %
26.09.2015 17:05 15,7 C 66 % 1022,3 hPa 0,0 l/m 0,0 km/h (0 Bft) O 95 0 min 0,000 mm 0,0 UV-I 86 W/m 9,4 C 15,7 C 0,0 km/h (0 Bft) 0,00 %
26.09.2015 17:10 15,7 C 65 % 1022,3 hPa 0,0 l/m 0,0 km/h (0 Bft) S 183 0 min 0,000 mm 0,0 UV-I 81 W/m 9,1 C 15,7 C 0,0 km/h (0 Bft) 0,00 %
26.09.2015 17:15 15,5 C 67 % 1022,4 hPa 0,0 l/m 0,0 km/h (0 Bft) S 173 0 min 0,000 mm 0,0 UV-I 77 W/m 9,4 C 15,5 C 0,0 km/h (0 Bft) 0,00 %
26.09.2015 17:20 15,4 C 68 % 1022,4 hPa 0,0 l/m 0,0 km/h (0 Bft) O 87 0 min 0,000 mm 0,0 UV-I 69 W/m 9,5 C 15,4 C 0,0 km/h (0 Bft) 0,00 %
26.09.2015 17:25 15,3 C 68 % 1022,5 hPa 0,0 l/m 0,0 km/h (0 Bft) NO 34 0 min 0,000 mm 0,0 UV-I 64 W/m 9,4 C 15,3 C 0,0 km/h (0 Bft) 0,00 %
26.09.2015 17:30 15,1 C 69 % 1022,5 hPa 0,0 l/m 0,0 km/h (0 Bft) O-NO 74 0 min 0,000 mm 0,0 UV-I 55 W/m 9,5 C 15,1 C 0,0 km/h (0 Bft) 0,00 %
26.09.2015 17:35 15,0 C 70 % 1022,6 hPa 0,0 l/m 0,0 km/h (0 Bft) S 184 0 min 0,000 mm 0,0 UV-I 47 W/m 9,6 C 15,0 C 0,0 km/h (0 Bft) 0,00 %
26.09.2015 17:40 14,8 C 71 % 1022,4 hPa 0,0 l/m 0,0 km/h (0 Bft) SW 228 0 min 0,000 mm 0,0 UV-I 41 W/m 9,6 C 14,8 C 0,0 km/h (0 Bft) 0,00 %
26.09.2015 17:45 14,7 C 72 % 1022,5 hPa 0,0 l/m 0,0 km/h (0 Bft) SW 217 0 min 0,000 mm 0,0 UV-I 33 W/m 9,7 C 14,7 C 0,0 km/h (0 Bft) 0,00 %
26.09.2015 17:50 14,6 C 72 % 1022,5 hPa 0,0 l/m 0,0 km/h (0 Bft) O-NO 68 0 min 0,000 mm 0,0 UV-I 28 W/m 9,6 C 14,6 C 0,0 km/h (0 Bft) 0,00 %
26.09.2015 17:55 14,5 C 72 % 1022,7 hPa 0,0 l/m 0,0 km/h (0 Bft) S-SW 200 0 min 0,000 mm 0,0 UV-I 24 W/m 9,5 C 14,5 C 0,0 km/h (0 Bft) 0,00 %
26.09.2015 18:00 14,3 C 72 % 1022,6 hPa 0,0 l/m 0,0 km/h (0 Bft) SO 129 0 min 0,000 mm 0,0 UV-I 20 W/m 9,3 C 14,3 C 0,0 km/h (0 Bft) 0,00 %
26.09.2015 18:05 14,2 C 73 % 1022,6 hPa 0,0 l/m 0,0 km/h (0 Bft) O 89 0 min 0,000 mm 0,0 UV-I 16 W/m 9,4 C 14,2 C 0,0 km/h (0 Bft) 0,00 %
26.09.2015 18:10 14,1 C 73 % 1022,6 hPa 0,0 l/m 0,0 km/h (0 Bft) O 84 0 min 0,000 mm 0,0 UV-I 10 W/m 9,3 C 14,1 C 0,0 km/h (0 Bft) 0,00 %
26.09.2015 18:15 14,0 C 74 % 1022,7 hPa 0,0 l/m 0,0 km/h (0 Bft) SO 127 0 min 0,000 mm 0,0 UV-I 8 W/m 9,4 C 14,0 C 0,0 km/h (0 Bft) 0,00 %
26.09.2015 18:20 14,0 C 75 % 1022,9 hPa 0,0 l/m 0,0 km/h (0 Bft) O-SO 113 0 min 0,000 mm 0,0 UV-I 7 W/m 9,6 C 14,0 C 0,0 km/h (0 Bft) 0,00 %
26.09.2015 18:25 13,9 C 76 % 1022,9 hPa 0,0 l/m 0,0 km/h (0 Bft) O-SO 116 0 min 0,000 mm 0,0 UV-I 5 W/m 9,7 C 13,9 C 0,0 km/h (0 Bft) 0,00 %
26.09.2015 18:30 13,8 C 77 % 1023,0 hPa 0,0 l/m 0,0 km/h (0 Bft) O-NO 71 0 min 0,000 mm 0,0 UV-I 5 W/m 9,8 C 13,8 C 0,0 km/h (0 Bft) 0,00 %
26.09.2015 18:35 13,7 C 79 % 1022,9 hPa 0,0 l/m 0,0 km/h (0 Bft) O 84 0 min 0,000 mm 0,0 UV-I 2 W/m 10,1 C 13,7 C 0,0 km/h (0 Bft) 0,00 %
26.09.2015 18:40 13,6 C 80 % 1022,9 hPa 0,0 l/m 0,0 km/h (0 Bft) O 85 0 min 0,000 mm 0,0 UV-I 0 W/m 10,2 C 13,6 C 0,0 km/h (0 Bft) 0,00 %
26.09.2015 18:45 13,5 C 80 % 1023,0 hPa 0,0 l/m 0,0 km/h (0 Bft) O 93 0 min 0,000 mm 0,0 UV-I 0 W/m 10,1 C 13,5 C 0,0 km/h (0 Bft) 0,00 %
26.09.2015 18:50 13,4 C 79 % 1023,1 hPa 0,0 l/m 0,0 km/h (0 Bft) O-SO 103 0 min 0,000 mm 0,0 UV-I 0 W/m 9,8 C 13,4 C 0,0 km/h (0 Bft) 0,00 %
26.09.2015 18:55 13,2 C 79 % 1023,1 hPa 0,0 l/m 0,0 km/h (0 Bft) O 81 0 min 0,000 mm 0,0 UV-I 0 W/m 9,6 C 13,2 C 0,0 km/h (0 Bft) 0,00 %
26.09.2015 19:00 13,1 C 80 % 1023,1 hPa 0,0 l/m 0,0 km/h (0 Bft) O-NO 59 0 min 0,000 mm 0,0 UV-I 0 W/m 9,7 C 13,1 C 0,0 km/h (0 Bft) 0,00 %
26.09.2015 19:05 13,0 C 81 % 1023,2 hPa 0,0 l/m 0,0 km/h (0 Bft) O-NO 57 0 min 0,000 mm 0,0 UV-I 0 W/m 9,8 C 13,0 C 0,0 km/h (0 Bft) 0,00 %
26.09.2015 19:10 12,9 C 82 % 1023,3 hPa 0,0 l/m 0,0 km/h (0 Bft) O 96 0 min 0,000 mm 0,0 UV-I 0 W/m 9,9 C 12,9 C 0,0 km/h (0 Bft) 0,00 %
26.09.2015 19:15 12,8 C 82 % 1023,2 hPa 0,0 l/m 0,0 km/h (0 Bft) O 90 0 min 0,000 mm 0,0 UV-I 0 W/m 9,8 C 12,8 C 0,0 km/h (0 Bft) 0,00 %
26.09.2015 19:20 12,7 C 82 % 1023,5 hPa 0,0 l/m 0,0 km/h (0 Bft) O 95 0 min 0,000 mm 0,0 UV-I 0 W/m 9,7 C 12,7 C 0,0 km/h (0 Bft) 0,00 %
26.09.2015 19:25 12,6 C 82 % 1023,3 hPa 0,0 l/m 0,0 km/h (0 Bft) NW 310 0 min 0,000 mm 0,0 UV-I 0 W/m 9,6 C 12,6 C 0,0 km/h (0 Bft) 0,00 %
26.09.2015 19:30 12,5 C 82 % 1023,5 hPa 0,0 l/m 0,0 km/h (0 Bft) O 98 0 min 0,000 mm 0,0 UV-I 0 W/m 9,5 C 12,5 C 0,0 km/h (0 Bft) 0,00 %
26.09.2015 19:35 12,5 C 83 % 1023,5 hPa 0,0 l/m 0,0 km/h (0 Bft) O-NO 69 0 min 0,000 mm 0,0 UV-I 0 W/m 9,7 C 12,5 C 0,0 km/h (0 Bft) 0,00 %
26.09.2015 19:40 12,4 C 82 % 1023,8 hPa 0,0 l/m 0,0 km/h (0 Bft) NO 48 0 min 0,000 mm 0,0 UV-I 0 W/m 9,4 C 12,4 C 0,0 km/h (0 Bft) 0,00 %
26.09.2015 19:45 12,4 C 83 % 1023,9 hPa 0,0 l/m 0,0 km/h (0 Bft) NO 43 0 min 0,000 mm 0,0 UV-I 0 W/m 9,6 C 12,4 C 0,0 km/h (0 Bft) 0,00 %
26.09.2015 19:50 12,4 C 82 % 1024,0 hPa 0,0 l/m 0,0 km/h (0 Bft) O-NO 59 0 min 0,000 mm 0,0 UV-I 0 W/m 9,4 C 12,4 C 0,0 km/h (0 Bft) 0,00 %
26.09.2015 19:55 12,4 C 83 % 1024,0 hPa 0,0 l/m 0,0 km/h (0 Bft) O-NO 63 0 min 0,000 mm 0,0 UV-I 0 W/m 9,6 C 12,4 C 0,0 km/h (0 Bft) 0,00 %
26.09.2015 20:00 12,4 C 83 % 1024,1 hPa 0,0 l/m 0,0 km/h (0 Bft) O-NO 78 0 min 0,000 mm 0,0 UV-I 0 W/m 9,6 C 12,4 C 0,0 km/h (0 Bft) 0,00 %
26.09.2015 20:05 12,3 C 83 % 1024,1 hPa 0,0 l/m 0,0 km/h (0 Bft) O-NO 74 0 min 0,000 mm 0,0 UV-I 0 W/m 9,5 C 12,3 C 0,0 km/h (0 Bft) 0,00 %
26.09.2015 20:10 12,3 C 82 % 1023,9 hPa 0,0 l/m 0,0 km/h (0 Bft) O-NO 61 0 min 0,000 mm 0,0 UV-I 0 W/m 9,3 C 12,3 C 0,0 km/h (0 Bft) 0,00 %
26.09.2015 20:16 12,3 C 82 % 1023,9 hPa 0,0 l/m 0,0 km/h (0 Bft) NO 54 0 min 0,000 mm 0,0 UV-I 0 W/m 9,3 C 12,3 C 0,0 km/h (0 Bft) 0,00 %
26.09.2015 20:21 12,3 C 82 % 1023,9 hPa 0,0 l/m 0,0 km/h (0 Bft) NO 54 0 min 0,000 mm 0,0 UV-I 0 W/m 9,3 C 12,3 C 0,0 km/h (0 Bft) 0,00 %
26.09.2015 20:26 12,3 C 82 % 1024,3 hPa 0,0 l/m 0,0 km/h (0 Bft) NO 54 0 min 0,000 mm 0,0 UV-I 0 W/m 9,3 C 12,3 C 0,0 km/h (0 Bft) 0,00 %
26.09.2015 20:31 12,3 C 82 % 1024,2 hPa 0,0 l/m 0,0 km/h (0 Bft) NO 54 0 min 0,000 mm 0,0 UV-I 0 W/m 9,3 C 12,3 C 0,0 km/h (0 Bft) 0,00 %
26.09.2015 20:36 12,3 C 83 % 1024,3 hPa 0,0 l/m 0,0 km/h (0 Bft) NO 54 0 min 0,000 mm 0,0 UV-I 0 W/m 9,5 C 12,3 C 0,0 km/h (0 Bft) 0,00 %
26.09.2015 20:41 12,2 C 82 % 1024,5 hPa 0,0 l/m 0,0 km/h (0 Bft) NO 56 0 min 0,000 mm 0,0 UV-I 0 W/m 9,2 C 12,2 C 0,0 km/h (0 Bft) 0,00 %
26.09.2015 20:46 12,2 C 82 % 1024,6 hPa 0,0 l/m 0,0 km/h (0 Bft) NO 56 0 min 0,000 mm 0,0 UV-I 0 W/m 9,2 C 12,2 C 0,0 km/h (0 Bft) 0,00 %
26.09.2015 20:51 12,2 C 78 % 1024,4 hPa 0,0 l/m 0,0 km/h (0 Bft) NO 53 0 min 0,000 mm 0,0 UV-I 0 W/m 8,5 C 12,2 C 0,0 km/h (0 Bft) 0,00 %
26.09.2015 20:56 12,3 C 77 % 1024,6 hPa 0,0 l/m 0,0 km/h (0 Bft) O-NO 76 0 min 0,000 mm 0,0 UV-I 0 W/m 8,4 C 12,3 C 0,0 km/h (0 Bft) 0,00 %
26.09.2015 21:01 12,3 C 75 % 1024,7 hPa 0,0 l/m 0,0 km/h (0 Bft) NO 53 0 min 0,000 mm 0,0 UV-I 0 W/m 8,0 C 12,3 C 0,0 km/h (0 Bft) 0,00 %
26.09.2015 21:06 12,3 C 74 % 1024,9 hPa 0,0 l/m 0,0 km/h (0 Bft) NO 47 0 min 0,000 mm 0,0 UV-I 0 W/m 7,8 C 12,3 C 0,0 km/h (0 Bft) 0,00 %
26.09.2015 21:11 12,2 C 72 % 1024,6 hPa 0,0 l/m 0,0 km/h (0 Bft) N-NO 27 0 min 0,000 mm 0,0 UV-I 0 W/m 7,3 C 12,2 C 0,0 km/h (0 Bft) 0,00 %
26.09.2015 21:16 12,2 C 70 % 1024,8 hPa 0,0 l/m 0,0 km/h (0 Bft) NO 55 0 min 0,000 mm 0,0 UV-I 0 W/m 6,9 C 12,2 C 0,0 km/h (0 Bft) 0,00 %
26.09.2015 21:21 12,2 C 70 % 1024,9 hPa 0,0 l/m 0,0 km/h (0 Bft) NO 41 0 min 0,000 mm 0,0 UV-I 0 W/m 6,9 C 12,2 C 0,0 km/h (0 Bft) 0,00 %
26.09.2015 21:26 12,1 C 69 % 1024,8 hPa 0,0 l/m 0,0 km/h (0 Bft) NO 38 0 min 0,000 mm 0,0 UV-I 0 W/m 6,6 C 12,1 C 0,0 km/h (0 Bft) 0,00 %
26.09.2015 21:31 12,2 C 68 % 1024,9 hPa 0,0 l/m 0,0 km/h (0 Bft) NO 37 0 min 0,000 mm 0,0 UV-I 0 W/m 6,5 C 12,2 C 0,0 km/h (0 Bft) 0,00 %
26.09.2015 21:36 12,2 C 67 % 1024,9 hPa 0,0 l/m 0,0 km/h (0 Bft) O-NO 60 0 min 0,000 mm 0,0 UV-I 0 W/m 6,3 C 12,2 C 0,0 km/h (0 Bft) 0,00 %
26.09.2015 21:41 12,2 C 67 % 1024,7 hPa 0,0 l/m 0,0 km/h (0 Bft) NO 48 0 min 0,000 mm 0,0 UV-I 0 W/m 6,3 C 12,2 C 0,0 km/h (0 Bft) 0,00 %
26.09.2015 21:46 12,1 C 67 % 1024,9 hPa 0,0 l/m 0,0 km/h (0 Bft) NO 56 0 min 0,000 mm 0,0 UV-I 0 W/m 6,2 C 12,1 C 0,0 km/h (0 Bft) 0,00 %
26.09.2015 21:51 12,1 C 67 % 1024,9 hPa 0,0 l/m 0,0 km/h (0 Bft) O-NO 63 0 min 0,000 mm 0,0 UV-I 0 W/m 6,2 C 12,1 C 0,0 km/h (0 Bft) 0,00 %
26.09.2015 21:56 12,1 C 68 % 1024,9 hPa 0,0 l/m 0,0 km/h (0 Bft) O-NO 68 0 min 0,000 mm 0,0 UV-I 0 W/m 6,4 C 12,1 C 0,0 km/h (0 Bft) 0,00 %
26.09.2015 22:01 12,0 C 68 % 1024,9 hPa 0,0 l/m 0,0 km/h (0 Bft) NO 40 0 min 0,000 mm 0,0 UV-I 0 W/m 6,3 C 12,0 C 0,0 km/h (0 Bft) 0,00 %
26.09.2015 22:06 12,0 C 68 % 1025,0 hPa 0,0 l/m 0,0 km/h (0 Bft) O-NO 65 0 min 0,000 mm 0,0 UV-I 0 W/m 6,3 C 12,0 C 0,0 km/h (0 Bft) 0,00 %
26.09.2015 22:11 12,0 C 69 % 1025,2 hPa 0,0 l/m 0,0 km/h (0 Bft) NO 51 0 min 0,000 mm 0,0 UV-I 0 W/m 6,5 C 12,0 C 0,0 km/h (0 Bft) 0,00 %
26.09.2015 22:16 11,9 C 68 % 1025,1 hPa 0,0 l/m 0,0 km/h (0 Bft) O-NO 69 0 min 0,000 mm 0,0 UV-I 0 W/m 6,2 C 11,9 C 0,0 km/h (0 Bft) 0,00 %
26.09.2015 22:21 11,8 C 67 % 1025,2 hPa 0,0 l/m 0,0 km/h (0 Bft) O-NO 64 0 min 0,000 mm 0,0 UV-I 0 W/m 5,9 C 11,8 C 0,0 km/h (0 Bft) 0,00 %
26.09.2015 22:26 11,8 C 66 % 1025,2 hPa 0,0 l/m 0,0 km/h (0 Bft) O-NO 61 0 min 0,000 mm 0,0 UV-I 0 W/m 5,7 C 11,8 C 0,0 km/h (0 Bft) 0,00 %
26.09.2015 22:31 11,9 C 68 % 1025,1 hPa 0,0 l/m 0,0 km/h (0 Bft) O-NO 62 0 min 0,000 mm 0,0 UV-I 0 W/m 6,2 C 11,9 C 0,0 km/h (0 Bft) 0,00 %
26.09.2015 22:36 11,9 C 69 % 1025,4 hPa 0,0 l/m 0,0 km/h (0 Bft) O-NO 71 0 min 0,000 mm 0,0 UV-I 0 W/m 6,4 C 11,9 C 0,0 km/h (0 Bft) 0,00 %
26.09.2015 22:41 11,8 C 70 % 1025,1 hPa 0,0 l/m 0,0 km/h (0 Bft) O-NO 69 0 min 0,000 mm 0,0 UV-I 0 W/m 6,5 C 11,8 C 0,0 km/h (0 Bft) 0,00 %
26.09.2015 22:46 11,7 C 70 % 1025,1 hPa 0,0 l/m 0,0 km/h (0 Bft) O-NO 75 0 min 0,000 mm 0,0 UV-I 0 W/m 6,4 C 11,7 C 0,0 km/h (0 Bft) 0,00 %
26.09.2015 22:51 11,6 C 71 % 1025,1 hPa 0,0 l/m 0,0 km/h (0 Bft) O 82 0 min 0,000 mm 0,0 UV-I 0 W/m 6,5 C 11,6 C 0,0 km/h (0 Bft) 0,00 %
26.09.2015 22:56 11,4 C 70 % 1025,3 hPa 0,0 l/m 0,0 km/h (0 Bft) O 89 0 min 0,000 mm 0,0 UV-I 0 W/m 6,1 C 11,4 C 0,0 km/h (0 Bft) 0,00 %
26.09.2015 23:01 11,4 C 70 % 1025,2 hPa 0,0 l/m 0,0 km/h (0 Bft) O 89 0 min 0,000 mm 0,0 UV-I 0 W/m 6,1 C 11,4 C 0,0 km/h (0 Bft) 0,00 %
26.09.2015 23:06 11,3 C 71 % 1025,1 hPa 0,0 l/m 0,0 km/h (0 Bft) O 89 0 min 0,000 mm 0,0 UV-I 0 W/m 6,2 C 11,3 C 0,0 km/h (0 Bft) 0,00 %
26.09.2015 23:11 11,2 C 72 % 1025,1 hPa 0,0 l/m 0,0 km/h (0 Bft) O 89 0 min 0,000 mm 0,0 UV-I 0 W/m 6,3 C 11,2 C 0,0 km/h (0 Bft) 0,00 %
26.09.2015 23:16 11,1 C 76 % 1025,1 hPa 0,0 l/m 0,0 km/h (0 Bft) O 89 0 min 0,000 mm 0,0 UV-I 0 W/m 7,0 C 11,1 C 0,0 km/h (0 Bft) 0,00 %
26.09.2015 23:21 11,0 C 76 % 1025,1 hPa 0,0 l/m 0,0 km/h (0 Bft) O 89 0 min 0,000 mm 0,0 UV-I 0 W/m 6,9 C 11,0 C 0,0 km/h (0 Bft) 0,00 %
26.09.2015 23:26 10,9 C 77 % 1025,4 hPa 0,0 l/m 0,0 km/h (0 Bft) O 89 0 min 0,000 mm 0,0 UV-I 0 W/m 7,0 C 10,9 C 0,0 km/h (0 Bft) 0,00 %
26.09.2015 23:31 10,8 C 77 % 1025,0 hPa 0,0 l/m 0,0 km/h (0 Bft) O 88 0 min 0,000 mm 0,0 UV-I 0 W/m 6,9 C 10,8 C 0,0 km/h (0 Bft) 0,00 %
26.09.2015 23:36 10,7 C 76 % 1025,2 hPa 0,0 l/m 0,0 km/h (0 Bft) O 88 0 min 0,000 mm 0,0 UV-I 0 W/m 6,6 C 10,7 C 0,0 km/h (0 Bft) 0,00 %
26.09.2015 23:41 10,6 C 77 % 1025,1 hPa 0,0 l/m 0,0 km/h (0 Bft) O 86 0 min 0,000 mm 0,0 UV-I 0 W/m 6,7 C 10,6 C 0,0 km/h (0 Bft) 0,00 %
26.09.2015 23:46 10,6 C 80 % 1025,2 hPa 0,0 l/m 0,0 km/h (0 Bft) O 86 0 min 0,000 mm 0,0 UV-I 0 W/m 7,3 C 10,6 C 0,0 km/h (0 Bft) 0,00 %
26.09.2015 23:51 10,5 C 82 % 1025,2 hPa 0,0 l/m 0,0 km/h (0 Bft) O 86 0 min 0,000 mm 0,0 UV-I 0 W/m 7,6 C 10,5 C 0,0 km/h (0 Bft) 0,00 %
26.09.2015 23:56 10,5 C 82 % 1025,1 hPa 0,0 l/m 0,0 km/h (0 Bft) O 86 0 min 0,000 mm 0,0 UV-I 0 W/m 7,6 C 10,5 C 0,0 km/h (0 Bft) 0,00 %
_ Min-Zeit 23:51 14:45 14:50 - 00:29 - - - - - - 22:26 23:51 00:29 00:04
Minimum _ 10,5 C 59 % 1021,1 hPa - 0,0 km/h (0 Bft) - - - - - - 5,7 C 10,5 C 0,0 km/h (0 Bft) 0,00 %
_ Max-Zeit 14:45 07:10 22:36 00:04 00:34 - - 00:04 00:04 12:55 13:00 11:55 14:45 00:09 00:04
Maximum _ 17,2 C 91 % 1025,4 hPa 0,0 l/m 4,7 km/h
S-SW (1 Bft)
- - 0 min 0,000 mm 2,0 UV-I 342 W/m 10,9 C 17,2 C 7,9 km/h
S (2 Bft)
0,00 %
Durchschnitt _ 13,3 C 77 % 1022,5 hPa #0,0 l/m 0,2 km/h (0 Bft) S - #0 min. #0,000 mm 1,0 UV-I 143 W/m 9,2 C 13,3 C 0,6 km/h (0 Bft) 0,00 %